User: anonymous   Login
Location: Unspecified
(0.0000°N, 0.0000°E)
Time: 17:21:49
(UTC+00:00)
Language:

COSMOS 2467 - Orbit

View from above orbital plane
View from above orbital plane
View from above satellite
View from above satellite

Ground track
Ground track

The orbit data is extracted from the following two-line orbital elements,

1 37152U 10043A   19016.74699309  .00000034  00000-0  17125-3 0  9996
2 37152  82.4588 319.0954 0001624 354.3661   5.7405 12.42882761379086
Epoch (UTC): 16 January 2019 17:55:40
Eccentricity: 0.0001624
inclination: 82.4588°
perigee height: 1493 km
apogee height: 1495 km
right ascension of ascending node: 319.0954°
argument of perigee: 354.3661°
revolutions per day: 12.42882761
mean anomaly at epoch: 5.7405°
orbit number at epoch: 37908

The dashed part of the orbit path shows where the satellite is in the earth's shadow,  

DLR